This demonstration page uses our WeatherBlox Daily Observations layout. Learn more.

Left ArrowRight Arrow

39.01783, -85.05884

Hourly Observations for August 9, 2015

Temp ( °F °C ) Dew Point ( °F °C ) Humidity (%) Winds ( mph kmh ) Pressure ( in mb ) Visibility ( mi km ) Precip ( " mm )
12:52 am 00:52 Mostly Cloudy 69 20.6 64 17.8 84 84 N N/A 29.98 1015 10 16 N/A
1:52 am 01:52 Mostly Cloudy 70 21.1 65 18.3 84 84 N N/A 29.98 1015 10 16 N/A
2:52 am 02:52 Partly Cloudy 69 20.6 65 18.3 87 87 N N/A 29.98 1015 10 16 N/A
3:52 am 03:52 Partly Cloudy 68 20 65 18.3 90 90 N N/A 29.98 1015 10 16 N/A
4:52 am 04:52 Clear 67 19.4 65 18.3 93 93 N N/A 29.97 1015 9 14 N/A
5:52 am 05:52 Clear 68 20 65 18.3 90 90 N N/A 29.98 1015 9 14 N/A
6:52 am 06:52 Partly Cloudy with Mist and Fog 67 19.4 65 18.3 93 93 N N/A 29.99 1016 6 10 N/A
7:52 am 07:52 Partly Cloudy with Mist and Fog 67 19.4 66 18.9 97 97 N N/A 29.98 1015 6 10 N/A
8:52 am 08:52 Mostly Sunny 75 23.9 68 20 79 79 NNE 3 6 30.00 1016 9 14 N/A
9:52 am 09:52 Partly Cloudy 78 25.6 65 18.3 64 64 ENE 3 6 30.00 1016 10 16 N/A
10:52 am 10:52 Partly Cloudy 80 26.7 65 18.3 60 60 N N/A 30.01 1016 10 16 N/A
11:52 am 11:52 Mostly Cloudy 81 27.2 67 19.4 62 62 N N/A 30.02 1017 10 16 N/A
12:52 pm 12:52 Cloudy 82 27.8 66 18.9 58 58 N N/A 30.02 1017 10 16 N/A
1:52 pm 13:52 Cloudy 81 27.2 70 21.1 69 69 SSW 3 6 30.00 1016 10 16 N/A
2:52 pm 14:52 Cloudy 81 27.2 68 20 65 65 SSE 10 17 29.99 1016 10 16 N/A
3:52 pm 15:52 Mostly Cloudy 82 27.8 68 20 63 63 S 5 7 29.98 1015 10 16 N/A
4:52 pm 16:52 Mostly Cloudy 82 27.8 67 19.4 60 60 SE 8 13 29.94 1014 10 16 N/A
5:52 pm 17:52 Cloudy 80 26.7 69 20.6 69 69 S 6 9 29.94 1014 10 16 N/A
6:52 pm 18:52 Cloudy 79 26.1 69 20.6 72 72 S 3 6 29.95 1014 10 16 N/A
7:52 pm 19:52 Cloudy 79 26.1 68 20 69 69 N N/A 29.94 1014 10 16 N/A
8:52 pm 20:52 Mostly Cloudy with Light Rain 76 24.4 69 20.6 79 79 SSE 5 7 29.93 1014 10 16 N/A
9:52 pm 21:52 Cloudy 77 25 68 20 74 74 N N/A 29.94 1014 10 16 N/A
10:52 pm 22:52 Cloudy 75 23.9 69 20.6 82 82 N N/A 29.94 1014 10 16 N/A
11:52 pm 23:52 Cloudy 75 23.9 69 20.6 82 82 N N/A 29.93 1014 10 16 N/A

Powered by AerisWeather